Marietta, GA

5:56 PM EST on November 24, 2017 (GMT -0500)
Dobbins Air Force Base

Weather History for KMGE - January, 2014

Change the Weather History Date:

Tuesday, January 28, 2014

  Actual Average Record
Temperature  
Mean Temperature 23 °F -  
Max Temperature 27 °F 50 °F 71 °F (2002)
Min Temperature 19 °F 32 °F 19 °F (2014)
Degree Days  
Heating Degree Days 42    
Moisture  
Dew Point 16 °F    
Average Humidity 79    
Maximum Humidity 93    
Minimum Humidity 30    
Precipitation  
Precipitation 0.07 in - - ()
Sea Level Pressure  
Sea Level Pressure 30.17 in    
Wind  
Wind Speed 10 mph (NW)    
Max Wind Speed 15 mph    
Max Gust Speed 23 mph    
Visibility 5 miles    
Events Snow    
Averages and records for this station are not official NWS values.
T = Trace of Precipitation, MM = Missing Value Source: NWS Daily Summary

Daily Weather History Graph

Daily Weather History Graph

Search for Another Location

Airport or City:

Trip Planner

Search our weather history database for the weather conditions in past years. The results will help you decide how hot, cold, wet, or windy it might be!

Date:

Astronomy

Jan. 28, 2014 Rise Set
Actual Time 7:37 AM EST 6:04 PM EST
Civil Twilight 7:11 AM EST 6:31 PM EST
Nautical Twilight 6:41 AM EST 7:01 PM EST
Astronomical Twilight 6:11 AM EST 7:30 PM EST
Moon 5:16 AM EST (1/28) 3:55 PM EST (1/28)
Length of Visible Light 11h 20m
Length of Day
10h 27m
Waning Crescent, 7% of the Moon is Illuminated
Jan 28
Waning Crescent
Jan 30
New
Feb 6
First Quarter
Feb 14
Full
Feb 22
Last Quarter

Hourly Weather History & Observations

Time (EST) Temp. Windchill Dew Point Humidity Pressure Visibility Wind Dir Wind Speed Gust Speed Precip Events Conditions
12:55 AM 27.1 °F 15.4 °F -1.1 °F 30% 30.12 in 10.0 mi NW 15.0 mph - N/A   Mostly Cloudy
1:55 AM 25.9 °F 13.8 °F -0.0 °F 33% 30.14 in 10.0 mi NW 15.0 mph 23.0 mph N/A   Overcast
2:55 AM 24.8 °F 14.6 °F 0.7 °F 35% 30.12 in 10.0 mi NW 10.4 mph - N/A   Partly Cloudy
3:55 AM 24.3 °F 12.7 °F 0.9 °F 36% 30.12 in 10.0 mi WNW 12.7 mph - N/A   Scattered Clouds
4:55 AM 24.1 °F 13.7 °F 1.4 °F 38% 30.13 in 10.0 mi NW 10.4 mph - N/A   Mostly Cloudy
5:58 AM 23.0 °F 10.1 °F 1.4 °F 39% 30.14 in 10.0 mi NW 15.0 mph 21.9 mph N/A   Mostly Cloudy
6:58 AM 23.4 °F 12.8 °F 1.4 °F 39% 30.17 in 10.0 mi NW 10.4 mph 17.3 mph N/A   Overcast
7:58 AM 23.7 °F 14.0 °F 1.4 °F 38% 30.21 in 10.0 mi NW 9.2 mph - N/A   Overcast
8:58 AM 23.9 °F 13.5 °F 1.9 °F 39% 30.21 in 10.0 mi NW 10.4 mph - N/A   Overcast
9:58 AM 24.6 °F 13.2 °F 3.0 °F 40% 30.25 in 10.0 mi NNW 12.7 mph - N/A   Overcast
10:02 AM 24.8 °F 15.3 °F 5.0 °F 43% 30.21 in 10.0 mi NW 9.2 mph 17.3 mph N/A Snow Light Snow
10:25 AM 24.8 °F 15.3 °F 10.4 °F 54% 30.20 in 10.0 mi NNW 9.2 mph - N/A Snow Light Snow
10:51 AM 23.0 °F 14.7 °F 12.2 °F 63% 30.20 in 10.0 mi NW 6.9 mph - N/A   Scattered Clouds
10:58 AM 23.9 °F 14.2 °F 12.2 °F 61% 30.24 in 10.0 mi NW 9.2 mph - 0.00 in   Scattered Clouds
11:02 AM 24.8 °F 16.9 °F 12.2 °F 59% 30.20 in 10.0 mi NW 6.9 mph - N/A   Scattered Clouds
11:19 AM 23.0 °F 12.4 °F 14.0 °F 68% 30.19 in 10.0 mi NW 10.4 mph - N/A Snow Light Snow
11:58 AM 23.0 °F 13.1 °F 17.6 °F 80% 30.20 in 5.0 mi NW 9.2 mph - 0.00 in Snow Light Snow
12:08 PM 23.0 °F 13.9 °F 19.4 °F 86% 30.21 in 3.0 mi NNW 8.1 mph - N/A Snow Light Snow
12:18 PM 23.0 °F 17.0 °F 19.4 °F 86% 30.21 in 3.0 mi NW 4.6 mph - N/A Snow Light Snow
12:23 PM 23.0 °F 18.4 °F 19.4 °F 86% 30.20 in 1.8 mi NW 3.5 mph - N/A Snow Light Snow
12:28 PM 23.0 °F 15.8 °F 19.4 °F 86% 30.20 in 1.5 mi WNW 5.8 mph - N/A Snow Light Snow
12:38 PM 23.0 °F 15.8 °F 21.2 °F 93% 30.21 in 1.2 mi WNW 5.8 mph - N/A Snow Light Snow
12:58 PM 23.0 °F 17.0 °F 21.2 °F 93% 30.19 in 1.2 mi NW 4.6 mph - 0.01 in Snow Light Snow
1:13 PM 23.0 °F 15.8 °F 21.2 °F 93% 30.17 in 1.2 mi NW 5.8 mph - N/A Snow Light Snow
1:18 PM 23.0 °F 15.8 °F 21.2 °F 93% 30.17 in 1.5 mi NW 5.8 mph - N/A Snow Light Snow
1:23 PM 23.0 °F 17.0 °F 21.2 °F 93% 30.17 in 1.8 mi WNW 4.6 mph - N/A Snow Light Snow
1:28 PM 23.0 °F 15.8 °F 21.2 °F 93% 30.16 in 1.5 mi WNW 5.8 mph - N/A Snow Light Snow
1:33 PM 23.0 °F 13.1 °F 21.2 °F 93% 30.16 in 1.8 mi NNW 9.2 mph - N/A Snow Light Snow
1:38 PM 23.0 °F 13.9 °F 19.4 °F 86% 30.16 in 2.0 mi NW 8.1 mph - N/A Snow Light Snow
1:43 PM 23.0 °F 13.9 °F 19.4 °F 86% 30.16 in 1.2 mi WNW 8.1 mph - N/A Snow Light Snow
1:48 PM 23.0 °F 13.9 °F 19.4 °F 86% 30.16 in 1.2 mi NW 8.1 mph - N/A Snow Light Snow
1:53 PM 23.0 °F 13.9 °F 19.4 °F 86% 30.16 in 1.8 mi NNW 8.1 mph - N/A Snow Light Snow
1:58 PM 22.6 °F 11.9 °F 19.9 °F 89% 30.15 in 2.0 mi NW 10.4 mph - 0.02 in Snow Light Snow
2:03 PM 23.0 °F 13.1 °F 19.4 °F 86% 30.15 in 1.8 mi NW 9.2 mph - N/A Snow Light Snow
2:08 PM 23.0 °F 13.1 °F 19.4 °F 86% 30.15 in 2.0 mi NW 9.2 mph - N/A Snow Light Snow
2:18 PM 23.0 °F 15.8 °F 19.4 °F 86% 30.15 in 2.0 mi NW 5.8 mph - N/A Snow Light Snow
2:23 PM 23.0 °F 13.1 °F 19.4 °F 86% 30.15 in 2.5 mi NW 9.2 mph - N/A Snow Light Snow
2:28 PM 23.0 °F 13.1 °F 19.4 °F 86% 30.15 in 2.5 mi NW 9.2 mph - N/A Snow Light Snow
2:33 PM 23.0 °F 13.1 °F 19.4 °F 86% 30.15 in 2.0 mi NW 9.2 mph - N/A Snow Light Snow
2:48 PM 23.0 °F 13.9 °F 19.4 °F 86% 30.15 in 1.8 mi NW 8.1 mph - N/A Snow Light Snow
2:58 PM 23.0 °F 12.4 °F 19.4 °F 86% 30.14 in 1.5 mi NW 10.4 mph - 0.02 in Snow Light Snow
3:03 PM 21.2 °F 10.9 °F 19.4 °F 93% 30.14 in 1.2 mi NW 9.2 mph - N/A Snow Light Snow
3:08 PM 21.2 °F 12.6 °F 19.4 °F 93% 30.14 in 1.0 mi NW 6.9 mph - N/A Snow Light Snow
3:13 PM 21.2 °F 11.7 °F 19.4 °F 93% 30.14 in 1.0 mi WNW 8.1 mph - N/A Snow Light Snow
3:18 PM 21.2 °F 11.7 °F 19.4 °F 93% 30.14 in 1.0 mi WNW 8.1 mph - N/A Snow Light Snow
3:23 PM 21.2 °F 11.7 °F 19.4 °F 93% 30.14 in 1.2 mi WNW 8.1 mph - N/A Snow Light Snow
3:28 PM 21.2 °F 11.7 °F 19.4 °F 93% 30.14 in 1.2 mi NW 8.1 mph - N/A Snow Light Snow
3:43 PM 21.2 °F 13.6 °F 19.4 °F 93% 30.14 in 1.5 mi North 5.8 mph - N/A Snow Light Snow
3:48 PM 21.2 °F 10.1 °F 19.4 °F 93% 30.14 in 1.8 mi NW 10.4 mph - N/A Snow Light Snow
3:53 PM 21.2 °F 10.1 °F 17.6 °F 86% 30.14 in 1.5 mi NW 10.4 mph - N/A Snow Light Snow
3:58 PM 21.2 °F 10.9 °F 18.3 °F 89% 30.14 in 1.2 mi NW 9.2 mph - 0.01 in Snow Light Snow
4:03 PM 21.2 °F 10.1 °F 17.6 °F 86% 30.14 in 1.0 mi NW 10.4 mph - N/A Snow Light Snow
4:08 PM 21.2 °F 10.1 °F 17.6 °F 86% 30.14 in 1.2 mi NW 10.4 mph - N/A Snow Light Snow
4:13 PM 21.2 °F 9.5 °F 17.6 °F 86% 30.14 in 1.8 mi NW 11.5 mph - N/A Snow Light Snow
4:18 PM 21.2 °F 10.1 °F 17.6 °F 86% 30.14 in 1.5 mi NW 10.4 mph - N/A Snow Light Snow
4:23 PM 21.2 °F 10.9 °F 17.6 °F 86% 30.14 in 1.2 mi NW 9.2 mph - N/A Snow Light Snow
4:28 PM 21.2 °F 12.6 °F 17.6 °F 86% 30.14 in 1.5 mi NW 6.9 mph - N/A Snow Light Snow
4:33 PM 21.2 °F 10.1 °F 17.6 °F 86% 30.14 in 1.5 mi NW 10.4 mph - N/A Snow Light Snow
4:38 PM 21.2 °F 8.9 °F 17.6 °F 86% 30.14 in 1.8 mi WNW 12.7 mph - N/A Snow Light Snow
4:53 PM 21.2 °F 13.6 °F 17.6 °F 86% 30.14 in 2.0 mi NW 5.8 mph - N/A Snow Light Snow
4:58 PM 20.8 °F 14.4 °F 17.6 °F 87% 30.14 in 2.0 mi NW 4.6 mph - 0.01 in Snow Light Snow
5:03 PM 21.2 °F 12.6 °F 17.6 °F 86% 30.14 in 1.8 mi NNW 6.9 mph - N/A Snow Light Snow
5:08 PM 21.2 °F 12.6 °F 17.6 °F 86% 30.14 in 2.0 mi NW 6.9 mph - N/A Snow Light Snow
5:13 PM 21.2 °F 11.7 °F 17.6 °F 86% 30.13 in 2.5 mi NNW 8.1 mph - N/A Snow Light Snow
5:18 PM 21.2 °F 14.9 °F 17.6 °F 86% 30.14 in 2.5 mi NW 4.6 mph - N/A Snow Light Snow
5:28 PM 21.2 °F 10.1 °F 17.6 °F 86% 30.14 in 3.0 mi NW 10.4 mph - N/A Snow Light Snow
5:43 PM 21.2 °F 10.9 °F 17.6 °F 86% 30.14 in 5.0 mi NW 9.2 mph - N/A Snow Light Snow
5:58 PM 20.7 °F 10.2 °F 17.1 °F 86% 30.20 in 5.0 mi NW 9.2 mph - 0.00 in Snow Light Snow
6:28 PM 21.2 °F 9.5 °F 17.6 °F 86% 30.15 in 6.0 mi NW 11.5 mph - N/A Snow Light Snow
6:58 PM 20.7 °F 7.1 °F 16.7 °F 85% 30.22 in 5.0 mi NW 15.0 mph - 0.00 in Snow Light Snow
7:13 PM 19.4 °F 7.9 °F 15.8 °F 86% 30.17 in 5.0 mi NW 10.4 mph 19.6 mph N/A Snow Light Snow
7:23 PM 19.4 °F 7.2 °F 15.8 °F 86% 30.17 in 6.0 mi NW 11.5 mph 19.6 mph N/A Snow Light Snow
7:38 PM 19.4 °F 6.6 °F 15.8 °F 86% 30.17 in 7.0 mi NW 12.7 mph - N/A Snow Light Snow
7:43 PM 19.4 °F 7.9 °F 15.8 °F 86% 30.17 in 7.0 mi NW 10.4 mph - N/A Snow Light Snow
7:51 PM 19.4 °F 7.9 °F 15.8 °F 86% 30.17 in 8.0 mi NW 10.4 mph - N/A   Overcast
7:56 PM 19.4 °F 7.2 °F 15.8 °F 86% 30.17 in 8.0 mi NW 11.5 mph - N/A   Overcast
7:58 PM 19.9 °F 9.3 °F 15.1 °F 81% 30.22 in 8.0 mi NW 9.2 mph - 0.00 in   Overcast
8:33 PM 19.4 °F 11.5 °F 15.8 °F 86% 30.18 in 9.0 mi Variable 5.8 mph - N/A   Overcast
8:48 PM 19.4 °F 8.6 °F 15.8 °F 86% 30.18 in 9.0 mi NW 9.2 mph - N/A   Overcast
8:58 PM 20.1 °F 11.3 °F 14.9 °F 80% 30.23 in 9.0 mi NW 6.9 mph - N/A   Overcast
9:43 PM 19.4 °F 10.4 °F 15.8 °F 86% 30.18 in 10.0 mi NW 6.9 mph - N/A   Overcast
9:58 PM 21.2 °F 14.9 °F 15.8 °F 80% 30.24 in 10.0 mi NW 4.6 mph - N/A   Mostly Cloudy
10:22 PM 21.2 °F 10.1 °F 15.8 °F 80% 30.20 in 10.0 mi WNW 10.4 mph - N/A   Overcast
10:58 PM 20.1 °F 8.1 °F 14.9 °F 80% 30.25 in 10.0 mi NW 11.5 mph - N/A   Overcast
11:58 PM 19.8 °F 7.7 °F 14.4 °F 80% 30.25 in 10.0 mi NW 11.5 mph - N/A   Overcast